Weather History for Wilmington, NC

Change the Weather History Date:

Saturday, November 2, 2013

  Actual Average Record
Temperature  
Mean Temperature 64 °F 60 °F  
Max Temperature 72 °F 72 °F 87 °F (1974)
Min Temperature 55 °F 49 °F 32 °F (1993)
Degree Days  
Heating Degree Days 1 6  
Month to date heating degree days 1 12  
Since 1 July heating degree days 73 109  
Cooling Degree Days 0 1  
Month to date cooling degree days 10 2  
Year to date cooling degree days 1879 2016  
Growing Degree Days 15 (Base 50)    
Moisture  
Dew Point 62 °F    
Average Humidity 75    
Maximum Humidity 93    
Minimum Humidity 57    
Precipitation  
Precipitation 0.99 in 0.10 in 1.65 in (1969)
Month to date precipitation 1.12 0.20  
Year to date precipitation 46.86 50.90  
Snow  
Snow 0.00 in 0.00 in - ()
Month to date snowfall 0.0 0.0  
Since 1 July snowfall 0.0 0.0  
Since 1 September snowfall 0.0 0.0  
Snow Depth 0.00 in    
Sea Level Pressure  
Sea Level Pressure 29.77 in    
Wind  
Wind Speed 6 mph (WSW)    
Max Wind Speed 16 mph    
Max Gust Speed 23 mph    
Visibility 8 miles    
Events Rain    
T = Trace of Precipitation, MM = Missing Value Source: NWS Daily Summary

Daily Weather History Graph

Daily Weather History Graph

Search for Another Location

Airport:

Trip Planner

Search our weather history database for the weather conditions in past years. The results will help you decide how hot, cold, wet, or windy it might be!

Date:

Astronomy

Nov. 02, 2013 Rise Set
Actual Time 7:32 AM EDT 6:17 PM EDT
Civil Twilight 7:06 AM EDT 6:43 PM EDT
Nautical Twilight 6:36 AM EDT 7:12 PM EDT
Astronomical Twilight 6:07 AM EDT 7:42 PM EDT
Moon 6:29 AM EDT (11/2) 5:46 PM EDT (11/2)
Length of Visible Light 11h 36m
Length of Day
10h 44m
Waning Crescent, 1% of the Moon is Illuminated
Nov 2
Waning Crescent
Nov 3
New
Nov 10
First Quarter
Nov 17
Full
Nov 25
Last Quarter

Hourly Weather History & Observations

Time (EDT) Temp. Dew Point Humidity Pressure Visibility Wind Dir Wind Speed Gust Speed Precip Events Conditions
12:53 AM 73.0 °F 69.1 °F 87% 29.73 in 5.0 mi SW 12.7 mph 18.4 mph 0.04 in Rain Light Rain
1:28 AM 71.6 °F 69.8 °F 94% 29.73 in 7.0 mi SW 13.8 mph - 0.03 in Rain Light Rain
1:53 AM 72.0 °F 69.1 °F 91% 29.73 in 9.0 mi SW 10.4 mph 19.6 mph 0.04 in Rain Light Rain
2:07 AM 71.6 °F 69.8 °F 94% 29.72 in 3.0 mi SW 9.2 mph 23.0 mph 0.03 in Rain Light Rain
2:21 AM 71.6 °F 69.8 °F 94% 29.72 in 2.5 mi West 12.7 mph - 0.05 in Rain Rain
2:31 AM 69.8 °F 66.2 °F 88% 29.72 in 4.0 mi West 11.5 mph 23.0 mph 0.08 in Rain Rain
2:34 AM 69.8 °F 66.2 °F 88% 29.72 in 5.0 mi West 10.4 mph - 0.09 in Rain Rain
2:53 AM 69.1 °F 66.0 °F 90% 29.73 in 4.0 mi West 9.2 mph - 0.16 in Rain Rain
3:04 AM 69.8 °F 66.2 °F 88% 29.74 in 1.8 mi West 10.4 mph - 0.07 in Rain Heavy Rain
3:06 AM 68.0 °F 66.2 °F 94% 29.74 in 1.2 mi West 10.4 mph - 0.12 in Rain Heavy Rain
3:15 AM 68.0 °F 66.2 °F 94% 29.74 in 1.0 mi West 10.4 mph - 0.35 in Rain Heavy Rain
3:20 AM 68.0 °F 66.2 °F 94% 29.72 in 2.0 mi West 8.1 mph - 0.38 in Rain Heavy Rain
3:29 AM 68.0 °F 66.2 °F 94% 29.73 in 1.8 mi West 8.1 mph - 0.43 in Rain Heavy Rain
3:39 AM 68.0 °F 64.4 °F 88% 29.74 in 2.0 mi WSW 11.5 mph - 0.54 in Rain Heavy Rain
3:44 AM 68.0 °F 64.4 °F 88% 29.74 in 3.0 mi WSW 10.4 mph - 0.56 in Rain Heavy Rain
3:53 AM 68.0 °F 64.9 °F 90% 29.72 in 3.0 mi West 10.4 mph - 0.60 in Rain Rain
4:53 AM 66.9 °F 64.0 °F 90% 29.73 in 10.0 mi WSW 10.4 mph - 0.12 in Rain Light Rain
5:53 AM 66.0 °F 64.0 °F 93% 29.73 in 8.0 mi WSW 6.9 mph - 0.07 in Rain Light Rain
6:10 AM 66.2 °F 64.4 °F 94% 29.73 in 10.0 mi WSW 8.1 mph - 0.00 in   Mostly Cloudy
6:31 AM 66.2 °F 64.4 °F 94% 29.74 in 10.0 mi WSW 6.9 mph - 0.00 in   Mostly Cloudy
6:53 AM 66.0 °F 64.0 °F 93% 29.75 in 10.0 mi SW 6.9 mph - 0.00 in   Overcast
7:26 AM 66.2 °F 64.4 °F 94% 29.74 in 10.0 mi West 9.2 mph - N/A   Overcast
7:53 AM 64.9 °F 62.1 °F 90% 29.75 in 10.0 mi West 9.2 mph - N/A   Mostly Cloudy
8:53 AM 64.0 °F 60.1 °F 87% 29.79 in 10.0 mi West 6.9 mph - N/A   Scattered Clouds
9:53 AM 64.0 °F 60.1 °F 87% 29.80 in 10.0 mi West 6.9 mph - N/A   Clear
10:53 AM 64.0 °F 60.1 °F 87% 29.79 in 10.0 mi WNW 8.1 mph - N/A   Clear
11:48 AM 64.4 °F 60.8 °F 88% 29.80 in 10.0 mi WSW 6.9 mph - N/A   Scattered Clouds
11:53 AM 64.9 °F 60.1 °F 84% 29.79 in 10.0 mi West 5.8 mph - N/A   Scattered Clouds
12:53 PM 68.0 °F 60.1 °F 76% 29.78 in 10.0 mi WNW 8.1 mph - N/A   Partly Cloudy
1:53 PM 68.0 °F 57.0 °F 68% 29.76 in 10.0 mi Variable 4.6 mph - N/A   Clear
2:53 PM 69.1 °F 55.9 °F 63% 29.76 in 10.0 mi NW 6.9 mph - N/A   Clear
3:53 PM 69.1 °F 54.0 °F 58% 29.74 in 10.0 mi West 6.9 mph - N/A   Clear
4:53 PM 69.1 °F 55.9 °F 63% 29.77 in 10.0 mi SSW 5.8 mph - N/A   Clear
5:53 PM 68.0 °F 57.0 °F 68% 29.79 in 10.0 mi SSW 4.6 mph - N/A   Clear
6:53 PM 64.9 °F 57.9 °F 78% 29.79 in 10.0 mi WSW 3.5 mph - N/A   Clear
7:53 PM 62.1 °F 57.9 °F 86% 29.83 in 10.0 mi SSW 3.5 mph - N/A   Clear
8:53 PM 62.1 °F 57.9 °F 86% 29.85 in 10.0 mi SSW 3.5 mph - N/A   Clear
9:53 PM 61.0 °F 57.9 °F 90% 29.87 in 10.0 mi Calm Calm - N/A   Clear
10:53 PM 59.0 °F 51.1 °F 75% 29.91 in 10.0 mi NNW 9.2 mph - N/A   Clear
11:53 PM 59.0 °F 46.9 °F 64% 29.92 in 10.0 mi Calm Calm - N/A   Mostly Cloudy